Terminal Aerodrome Forecast
Issued by NWS

Home | Current Version | Previous Version | Text Only | Print | Product List | Glossary On
Versions: 1 2 3 4 5 6 7 8 9 10 11 12
000
FTAK31 PAJN 141140
TAFAWG
TAF
PAWG 141140Z 1412/1512 07010KT P6SM -RA SCT040 OVC070 WS020/15050KT
      TEMPO 1412/1416 07010G20KT SCT015 BKN025 OVC035
     FM141600 11012G22KT 3SM RA BR OVC015 WS020/15040KT
     FM142100 14010KT 4SM RA BR OVC015
     FM150300 17008KT 5SM -SHRA BR SCT015 OVC025
     FM150700 14007KT 5SM -SHRA BR SCT015 OVC025
      AMD LTD TO CLD VIS AND WIND 1412/1415=

USA.gov is the U.S. government's official web portal to all federal, state and local government web resources and services.